SCP
0 0 0 0 0 0 0 0 0 0 0 0 0 0 0 0 0 0 0 0 0 0 0 0 0 0 0 0 0 0 0 0 0 0 0 0 0 0 0 0 0 0 0 0 0 0 0 0 0 0 0 0 0 0
0 0 0 0 0 0 0 0 0 0 0 0 0 0 0 0 0 0 0 0 0 0 0 0 0 0 0 0 0 0 0 0 0 0 0 0 0 0 0 0 0 0 0 0 0 0 0 0 0 0 0 0 0 0
0 0 0 0 0 0 0 0 0 0 0 0 0 0 0 0 0 0 0 0 0 0 0 0 0 0 0 0 0 0 0 0 0 0 0 0 0 0 0 0 0 0 0 0 0 0 0 0 0 0 0 0 0 0
0 0 0 0 0 0 0 0 0 0 0 0 0 0 0 0 0 0 0 0 0 0 0 0 0 0 0 0 0 0 0 0 0 0 0 0 0 0 0 0 0 0 0 0 0 0 0 0 0 0 0 0 0 0
0 0 0 0 0 0 0 0 0 0 0 0 0 0 0 0 0 0 0 0 0 0 0 0 0 0 0 0 0 0 0 0 0 0 0 0 0 0 0 0 0 0 0 0 0 0 0 0 0 0 0 0 0 0
0 0 0 0 0 0 0 0 0 0 0 0 0 0 0 0 0 0 0 0 0 0 0 0 0 0 0 0 0 0 0 0 0 0 0 0 0 0 0 0 0 0 0 0 0 0 0 0 0 0 0 0 0 0
0 0 0 0 0 0 0 0 0 0 0 0 0 0 0 0 0 0 0 0 0 0 0 0 0 0 0 0 0 0 0 0 0 0 0 0 0 0 0 0 0 0 0 0 0 0 0 0 0 0 0 0 0 0
0 0 0 0 0 0 0 0 0 0 0 0 0 0 0 0 0 0 0 0 0 0 0 0 0 0 0 0 0 0 0 0 0 0 0 0 0 0 0 0 0 0 0 0 0 0 0 0 0 0 0 0 0 0
0 0 0 0 0 0 0 0 0 0 0 0 0 0 0 0 0 0 0 0 0 0 0 0 0 0 0 0 0 0 0 0 0 0 0 0 0 0 0 0 0 0 0 0 0 0 0 0 0 0 0 0 0 0
0 0 0 0 0 0 0 0 0 0 0 0 0 0 0 0 0 0 0 0 0 0 0 0 0 0 0 0 0 0 0 0 0 0 0 0 0 0 0 0 0 0 0 0 0 0 0 0 0 0 0 0 0 0
0 0 0 0 0 0 0 0 0 0 0 0 0 0 0 0 0 0 0 0 0 0 0 0 0 0 0 0 0 0 0 0 0 0 0 0 0 0 0 0 0 0 0 0 0 0 0 0 0 0 0 0 0 -0
0 0 0 0 0 0 0 0 0 0 0 0 0 0 0 0 0 0 0 0 0 0 0 0 0 0 0 0 0 0 0 0 0 0 0 0 0 0 0 0 0 0 0 0 0 0 0 0 0 0 0 -0 -0 -0
0 0 0 0 0 0 0 0 0 0 0 0 0 0 0 0 0 0 0 0 0 0 0 0 0 0 0 0 0 0 0 0 0 0 0 0 0 0 0 0 0 0 0 0 0 0 0 0 0 0 0 -0 -0 -0
0 0 0 0 0 0 0 0 0 0 0 0 0 0 0 0 0 0 0 0 0 0 0 0 0 0 0 0 0 0 0 0 0 0 0 0 0 0 0 0 0 0 0 0 0 0 0 0 0 0 -0 -0 -0 -0
0 0 0 0 0 0 0 0 0 0 0 0 0 0 0 0 0 0 0 0 0 0 0 0 0 0 0 0 0 0 0 0 0 0 0 0 0 0 0 0 0 0 0 0 0 0 0 0 0 -0 -0 -0 -0 -0
0 0 0 0 0 0 0 0 0 0 0 0 0 0 0 0 0 0 0 0 0 0 0 0 0 0 0 0 0 0 0 0 0 0 0 0 0 0 0 0 0 0 0 0 0 0 0 0 0 -0 -0 -0 -0 -0
0 0 0 0 0 0 0 0 0 0 0 0 0 0 0 0 0 0 0 0 0 0 0 0 0 0 0 0 0 0 0 0 0 0 0 0 0 0 0 0 0 0 0 0 0 0 0 0 -0 -0 0 -0 -0 -0
0 0 -0 -0 0 0 0 0 0 0 0 0 0 0 0 0 0 0 0 0 0 0 0 0 0 0 0 0 0 0 0 0 0 0 0 0 0 0 0 0 0 0 0 0 0 0 0 -0 -0 -0 -0 -0 -0 -0
0 0 0 0 0 0 0 0 0 0 0 0 0 0 0 0 0 0 0 0 0 0 0 0 0 0 0 0 0 0 0 0 0 0 0 0 0 0 0 0 0 0 0 0 0 0 0 -0 -0 -0 -0 -0 -0 -0
0 0 0 0 0 0 0 0 0 0 0 0 0 0 0 0 0 0 0 0 0 0 0 0 0 0 0 0 0 0 0 0 0 0 0 0 0 0 0 0 0 0 0 0 0 0 -0 -0 -0 -0 -0 -0 -0 -0
0 0 0 0 0 0 0 0 0 0 0 0 0 0 0 0 0 0 0 0 0 0 0 0 0 0 0 0 0 0 0 0 0 0 0 0 0 0 0 0 0 0 0 0 0 -0 -0 -0 -0 -0 -0 -0 -0 -0
0 0 0 0 0 0 0 0 0 0 0 0 0 0 0 0 0 0 0 0 0 0 0 0 0 0 0 0 0 0 0 0 0 0 0 0 0 0 0 0 0 0 0 0 -0 -0 -0 -0 -0 -0 -0 -0 -0 -0
0 0 0 0 0 0 0 0 0 0 0 0 0 0 0 0 0 0 0 0 0 0 0 0 0 0 0 0 0 0 0 0 0 0 0 0 0 0 0 0 0 0 0 0 -0 -0 -0 -0 -0 -0 -0 -0 -0 -0
0 0 0 0 0 0 0 0 0 0 0 0 0 0 0 0 0 0 0 0 0 0 0 0 0 0 0 0 0 0 0 0 0 0 0 0 0 0 0 0 0 0 0 0 0 -0 -0 0 -0 -0 -0 -0 -0 -0
0 0 0 0 0 0 0 0 0 0 0 0 0 0 0 0 0 0 0 0 0 0 0 0 0 0 0 0 0 0 0 0 0 0 0 0 0 0 0 0 0 0 0 0 0 -0 -0 -0 -0 -0 -0 -0 -0 -0
0 0 0 0 0 0 0 0 0 0 0 0 0 0 0 0 0 0 0 0 0 0 0 0 0 0 0 0 0 0 0 0 0 0 0 0 0 0 0 0 0 0 0 0 0 0 -0 0 0 -0 -0 -0 -0 -0
0 0 0 0 0 0 0 0 0 0 0 0 0 0 0 0 0 0 0 0 0 0 0 0 0 0 0 0 0 0 0 0 0 0 0 0 0 0 0 0 0 0 0 0 0 0 0 -0 -0 -0 -0 -0 -0 -0
0 0 0 0 0 0 0 0 0 0 0 0 0 0 0 0 0 0 0 0 0 0 0 0 0 0 0 0 0 0 0 0 0 0 0 0 0 0 0 0 0 0 0 0 0 0 0 0 -0 -0 -0 -0 -0 -0
0 0 0 0 0 0 0 0 0 0 0 0 0 0 0 0 0 0 0 0 0 0 0 0 0 0 0 0 0 0 0 0 0 0 0 0 0 0 0 0 0 0 0 0 0 0 0 0 -0 -0 -0 -0 -0 -0
0 0 0 0 0 0 0 0 0 0 0 0 0 0 0 0 0 0 0 0 0 0 0 0 0 0 0 0 0 0 0 0 0 0 0 0 0 0 0 0 0 0 0 0 0 0 0 0 0 0 0 -0 -0 -0
0 0 0 0 0 0 0 0 0 0 0 0 0 0 0 0 0 0 0 0 0 0 0 0 0 0 0 0 0 0 0 0 0 0 0 0 0 0 0 0 0 0 0 0 0 0 0 0 0 -0 -0 -0 -0 -0
0 0 0 -0 -0 0 0 0 0 0 0 0 0 0 0 0 0 0 0 0 0 0 0 0 0 0 0 0 0 0 0 0 0 0 0 0 0 0 0 0 0 0 0 0 0 0 0 -0 0 -0 -0 -0 -0 -0
-0 -0 -0 -0 -0 -0 -0 -0 -0 -0 -0 -0 -0 -0 -0 -0 -0 -0 0 -0 -0 -0 -0 -0 -0 -0 -0 -0 0 0 0 0 0 0 0 0 0 0 0 0 0 0 0 0 0 0 0 0 0 -0 -0 -0 -0 -0
Wind_Speed_500mb
17 14 11 11 10 10 13 12 8 10 13 16 16 11 18 17 17 15 10 11 10 6 10 13 16 13 12 11 8 11 5 2 6 6 8 8 7 8 2 6 11 14 12 7 3 4 28 5 9 9 14 46 54 60
14 12 13 15 13 16 16 12 14 14 15 15 20 11 13 16 16 13 15 15 17 12 11 20 23 30 29 16 9 19 4 9 14 6 0 5 5 1 7 7 5 6 12 8 18 14 4 20 11 38 80 60 63 68
15 13 16 18 19 18 22 20 21 21 19 21 20 18 19 18 13 9 11 18 22 16 24 18 4 9 33 53 41 18 17 18 12 11 15 6 6 7 7 12 4 7 14 12 4 7 24 41 59 72 56 59 72 80
22 21 23 23 24 23 26 28 24 24 26 28 29 22 23 23 21 18 19 15 13 10 8 9 5 4 15 18 33 56 42 18 18 22 14 6 5 22 7 10 10 14 12 8 26 32 52 49 50 63 67 71 78 86
19 21 20 21 25 27 30 31 33 34 32 32 32 29 19 18 14 24 24 23 20 11 7 23 46 22 15 41 36 31 41 51 41 19 11 7 11 6 10 3 16 30 13 14 30 42 36 50 65 70 75 78 83 84
20 19 17 20 24 26 30 30 32 25 29 33 35 32 22 17 21 20 13 14 16 17 6 6 13 32 30 27 15 43 36 30 36 14 12 13 21 15 7 7 20 45 45 56 57 64 70 69 74 61 66 71 80 88
25 24 25 29 29 32 33 33 35 33 33 33 32 35 31 28 28 20 9 7 11 4 4 12 14 10 14 10 10 17 24 23 25 16 16 19 17 20 7 30 89 43 57 67 71 77 49 58 57 64 77 83 86 92
16 19 26 32 33 33 32 33 35 35 32 38 33 32 35 36 39 37 37 30 23 10 9 4 10 14 6 4 6 9 10 18 17 14 6 9 8 9 11 43 54 49 54 56 55 55 48 56 66 83 86 89 91 97
14 15 16 18 19 23 32 28 28 35 36 28 30 29 30 49 30 41 33 33 39 26 10 14 8 7 6 5 4 4 5 1 5 5 8 8 2 12 21 16 39 53 52 68 67 67 68 67 77 84 90 94 82 94
12 14 15 19 20 22 22 29 26 22 29 34 26 20 15 13 24 15 11 15 17 17 24 18 24 5 13 9 3 2 2 1 2 6 4 4 9 74 71 74 75 69 58 61 60 56 45 60 74 85 92 94 89 95
16 17 18 20 21 22 25 22 27 20 17 23 14 15 19 28 23 12 12 12 11 8 13 13 41 12 19 6 5 4 4 1 1 8 6 5 8 18 35 40 36 40 49 50 48 59 61 70 73 84 94 93 94 94
19 22 22 23 25 24 21 23 21 26 17 11 15 16 25 15 14 9 7 2 6 11 13 16 17 24 15 15 10 8 6 4 11 1 5 7 9 21 24 37 40 41 49 52 57 66 68 70 73 81 86 89 92 90
23 26 25 25 26 27 26 22 23 25 36 26 16 18 15 17 11 16 18 8 3 14 26 23 9 21 15 16 11 7 7 10 3 3 8 11 21 35 32 36 48 49 55 59 65 68 70 75 78 80 85 92 91 92
30 27 27 28 28 29 29 27 23 28 26 15 16 12 14 11 13 12 10 12 28 24 46 43 21 10 10 8 9 9 8 6 1 4 14 7 48 48 40 45 55 63 61 61 67 68 75 77 79 82 86 87 83 92
34 32 34 33 35 30 30 32 31 31 24 24 16 13 17 21 13 13 32 19 28 35 53 24 12 12 1 6 5 7 6 10 13 12 9 38 41 41 50 61 65 66 68 68 67 73 77 77 78 86 87 83 83 84
39 44 45 43 38 37 35 35 36 43 18 18 24 10 5 1 7 16 35 44 44 44 41 13 8 7 10 8 7 17 12 15 12 9 47 41 45 60 69 71 72 72 68 70 73 73 73 76 79 85 84 80 79 75
42 50 49 41 38 39 34 31 30 23 17 16 17 34 44 35 19 29 39 41 40 42 7 9 14 20 7 5 6 10 13 25 40 54 59 68 79 82 81 83 78 76 72 69 68 72 73 74 78 77 80 78 75 72
51 48 43 38 37 42 48 44 21 17 19 37 22 49 47 47 46 52 53 51 49 38 39 14 14 10 12 15 9 12 48 68 75 82 82 79 86 87 83 75 81 76 70 69 70 71 70 73 73 74 74 71 73 71
58 45 41 44 39 45 21 18 32 17 38 59 63 67 66 58 58 68 73 76 81 52 29 18 11 10 10 17 26 47 51 67 74 82 81 84 86 83 81 82 81 71 66 68 66 68 67 64 62 64 63 64 67 64
65 48 44 46 43 43 15 16 31 24 16 34 45 41 36 43 48 55 64 65 61 32 16 9 13 29 39 79 76 77 77 81 68 66 75 89 90 88 85 83 79 73 71 68 64 62 64 59 58 55 57 57 60 58
67 57 49 48 50 47 22 22 28 17 17 25 38 40 30 32 33 36 40 44 26 12 6 35 60 68 71 77 77 78 84 88 87 86 78 78 101 89 91 86 80 70 60 56 56 62 57 55 52 50 51 49 48 48
73 51 46 44 30 24 30 43 31 28 16 15 10 14 12 9 18 24 23 22 17 41 47 70 83 87 89 90 99 102 99 86 84 89 93 88 88 87 85 81 70 71 62 55 53 52 51 46 42 43 45 43 42 42
47 35 40 35 22 23 26 31 21 19 8 9 11 7 8 12 12 18 12 17 35 76 81 78 84 87 84 92 89 92 90 84 86 94 96 92 90 82 75 71 64 55 52 49 38 37 36 32 35 39 40 38 41 41
29 18 15 19 28 13 11 15 15 10 8 3 7 8 8 13 15 7 8 15 63 64 64 71 75 83 81 82 86 89 87 89 88 89 88 78 73 66 60 54 41 35 35 33 25 22 21 25 30 35 38 41 43 43
13 20 21 16 13 8 13 6 6 5 10 10 10 9 5 11 6 6 8 22 57 67 71 74 78 78 73 79 78 70 65 62 62 67 59 52 49 49 41 31 26 25 25 18 16 20 19 22 28 33 37 40 44 44
20 31 17 20 11 13 14 12 15 16 8 9 13 4 8 5 6 12 8 36 49 53 56 59 53 49 50 51 53 47 46 39 38 45 50 48 46 41 31 21 20 17 19 16 16 21 22 24 27 31 35 38 41 44
13 12 15 17 15 15 5 4 6 4 11 13 7 9 7 9 13 10 23 30 31 35 34 30 31 33 36 33 29 35 43 49 46 48 47 39 35 35 35 30 26 24 27 27 26 28 28 29 30 32 35 37 40 42
17 25 13 18 12 13 10 8 11 14 10 16 18 10 15 17 12 9 11 19 23 25 26 28 30 33 35 39 45 48 47 45 41 38 35 32 32 40 40 38 34 29 28 29 32 33 34 35 38 38 40 41 39 38
16 19 22 5 5 11 16 16 13 20 17 32 11 9 12 17 22 20 24 27 29 31 33 33 34 35 36 37 39 40 38 38 39 37 37 44 38 37 40 42 42 42 42 38 40 40 40 40 41 44 45 46 45 39
15 29 11 6 11 14 17 25 9 14 19 25 14 13 16 22 23 25 25 27 27 28 28 31 35 39 41 41 41 37 33 33 32 32 36 38 37 39 39 41 41 42 44 47 47 46 46 48 48 50 54 54 50 46
14 21 6 10 9 7 12 18 24 28 22 20 32 30 26 17 18 15 15 18 19 21 24 27 30 34 36 37 39 43 44 34 31 33 38 44 47 46 43 45 47 49 50 52 54 56 57 58 58 56 54 53 50 51
9 10 7 4 7 7 13 5 7 7 9 8 5 5 5 3 3 10 26 22 25 27 34 44 51 51 42 37 38 40 43 46 44 43 44 49 53 54 54 53 53 57 59 60 61 63 64 65 63 59 56 55 55 52
3 5 4 6 8 6 8 12 4 8 4 7 8 7 6 4 3 17 31 29 29 39 53 60 52 46 44 46 50 47 45 43 42 44 46 49 52 52 53 54 54 55 57 58 59 61 64 65 67 64 60 58 58 55
Wind_Direction_500mb
239 242 251 258 274 285 300 297 326 325 340 346 337 3 358 346 347 351 353 350 349 305 270 240 223 197 172 180 144 151 46 250 61 102 173 207 183 228 92 214 186 175 160 192 107 242 261 95 51 113 268 302 310 309
247 240 263 276 273 285 297 297 306 309 314 324 337 348 325 339 346 335 328 333 325 298 270 269 260 240 239 215 201 192 211 167 191 87 317 103 220 238 183 259 312 273 191 188 190 214 237 301 287 318 321 302 304 302
242 250 256 257 264 274 276 274 275 295 297 290 301 323 342 337 349 331 346 339 332 317 298 285 308 277 253 239 236 222 230 221 204 195 166 191 221 130 196 237 205 263 222 240 50 266 254 283 297 307 300 299 301 302
243 236 246 250 258 263 266 270 276 275 281 288 294 302 325 327 312 296 298 308 320 315 301 301 305 28 290 265 235 228 232 201 216 236 223 179 175 203 231 253 202 205 176 224 255 274 283 286 295 296 294 294 295 303
248 248 250 257 261 257 259 263 267 260 262 270 270 267 272 298 271 277 288 281 278 282 276 292 298 294 305 252 243 235 230 237 238 223 214 222 213 247 236 276 240 222 216 237 263 273 285 289 294 295 295 302 305 304
242 247 255 263 259 260 256 262 267 275 262 271 277 278 261 256 260 265 283 270 232 222 262 309 288 287 282 285 289 232 237 227 224 223 222 230 223 227 260 254 226 251 258 258 265 279 278 285 287 297 299 307 307 303
249 254 249 256 261 259 258 256 261 257 253 259 265 261 271 236 246 228 250 210 192 184 280 294 297 272 294 299 226 230 229 218 230 243 225 231 221 219 244 266 268 273 282 284 277 277 281 285 284 301 303 306 311 311
251 260 257 261 263 264 261 259 259 256 265 258 261 260 260 244 236 240 250 238 223 234 217 224 267 306 269 240 194 197 202 198 215 235 229 208 222 215 261 247 275 288 288 290 297 292 286 299 295 295 302 311 314 310
280 281 284 291 294 288 265 263 267 259 266 264 265 244 252 211 214 228 245 238 234 218 216 196 164 247 200 189 203 174 217 4 251 218 240 185 157 226 241 255 282 290 291 296 299 296 292 292 297 299 308 312 306 306
308 322 305 291 297 289 295 264 265 275 256 256 265 218 216 201 206 201 209 215 221 222 223 196 193 230 178 167 91 12 348 220 288 251 280 124 244 248 263 271 276 285 295 301 296 296 300 300 296 301 306 310 307 311
297 295 299 294 300 290 286 291 257 285 296 249 226 205 188 172 173 189 223 197 211 264 232 221 211 180 191 135 165 228 179 215 38 264 145 294 279 249 271 270 274 288 304 308 313 313 306 305 301 305 310 311 313 315
314 309 300 296 293 291 294 274 272 263 259 253 224 178 156 184 183 185 196 199 187 225 209 183 196 184 174 162 157 177 161 62 239 304 81 270 247 260 260 281 292 302 309 308 311 317 315 313 311 310 310 312 314 315
307 309 305 293 291 286 281 270 259 254 257 282 218 164 190 201 216 196 195 226 233 206 189 172 160 163 152 178 108 112 156 224 91 76 230 235 265 278 276 280 293 297 308 313 312 315 317 313 310 313 315 317 318 316
322 311 312 299 290 284 278 272 257 256 234 229 190 210 200 204 238 201 177 178 204 195 180 162 141 152 156 147 146 131 218 94 215 259 234 244 266 282 285 291 294 304 311 310 311 312 314 315 314 314 317 317 314 315
324 317 309 299 284 279 277 265 272 265 218 213 207 228 220 233 242 245 220 196 194 196 168 148 112 170 117 124 184 97 41 233 202 227 224 260 273 282 292 304 310 313 313 311 309 311 313 313 313 314 317 314 314 314
315 315 306 299 278 277 287 261 254 266 248 230 223 242 230 117 259 221 211 217 204 182 161 160 131 132 218 162 119 210 155 218 234 214 257 278 289 297 300 303 309 310 308 307 308 309 311 311 314 314 313 312 316 317
305 305 314 298 287 281 290 288 272 234 241 235 243 244 254 255 245 239 228 224 209 166 192 164 178 203 112 121 234 186 208 236 243 263 279 287 289 293 297 302 304 306 306 306 307 308 310 311 314 313 311 316 315 319
279 298 303 296 288 289 285 267 248 249 242 243 245 261 249 251 255 252 244 227 196 199 207 216 165 189 200 184 235 236 235 247 254 259 270 279 282 287 296 297 302 303 303 305 306 307 308 312 314 313 313 315 316 321
268 281 290 290 288 285 257 230 210 233 237 253 264 267 263 261 261 261 256 246 230 213 200 193 218 201 203 210 231 241 247 255 259 268 278 286 285 291 297 300 302 300 303 306 307 308 309 309 310 314 313 315 316 321
260 259 269 272 282 275 253 249 249 252 219 245 255 252 258 260 268 265 253 241 210 196 201 216 210 225 227 233 239 244 254 263 263 267 276 283 284 293 298 300 298 301 304 306 309 307 309 313 314 313 315 317 318 323
254 248 260 274 271 260 256 258 253 259 244 231 254 250 245 245 242 240 239 227 186 215 246 238 241 245 250 255 260 263 266 271 273 273 271 276 286 291 294 294 297 301 302 307 305 306 308 314 311 315 316 320 321 325
247 239 259 269 256 251 248 247 245 245 246 256 240 217 234 237 228 228 205 182 217 235 233 239 242 248 253 255 258 262 270 276 275 277 280 281 284 286 289 293 296 298 298 299 302 299 303 309 312 317 318 325 330 331
236 240 257 253 253 238 247 228 214 213 208 232 201 192 238 229 225 195 223 228 240 244 247 252 259 262 260 268 271 274 277 276 276 278 280 282 282 283 283 289 294 293 292 294 294 290 299 308 322 327 327 336 338 339
240 228 229 230 218 217 197 207 202 194 202 212 193 238 248 221 169 173 237 241 249 254 261 269 270 268 268 269 272 277 284 281 279 281 278 276 275 277 286 289 284 282 283 280 284 280 295 318 330 334 341 351 348 345
226 217 212 222 220 174 178 186 195 159 234 194 201 247 227 175 183 209 232 261 265 271 276 276 272 272 270 278 282 285 291 291 285 280 278 267 269 276 272 277 283 277 254 252 258 266 284 312 330 340 346 353 353 351
210 213 210 196 190 176 191 180 199 208 165 190 226 195 168 170 211 240 228 260 272 275 277 278 281 287 288 286 288 294 303 299 289 279 281 272 264 256 257 252 247 234 245 258 274 290 294 300 317 337 346 346 348 353
213 206 205 207 186 156 117 119 143 157 186 206 183 167 173 215 235 246 259 269 268 281 281 285 293 297 293 290 295 308 314 309 300 281 284 269 251 242 239 242 243 240 246 262 273 286 299 307 312 323 335 344 342 345
222 184 197 193 211 187 144 165 177 205 218 184 134 184 194 202 230 267 276 287 284 285 285 290 294 297 298 297 298 300 302 302 305 299 274 249 240 232 234 237 241 247 253 260 268 282 295 304 309 314 320 327 336 335
177 187 164 159 159 205 214 198 207 221 202 176 182 217 231 241 269 277 286 289 292 297 297 295 294 295 295 295 293 290 291 293 295 292 284 260 247 248 248 247 246 255 255 256 264 271 283 292 299 304 307 312 319 325
159 174 165 171 184 212 219 208 232 232 222 223 254 268 273 276 283 290 298 302 303 306 313 317 317 315 311 307 297 289 287 285 282 276 274 272 267 258 255 254 255 255 256 259 262 267 274 281 287 293 298 301 304 311
153 177 179 191 228 238 241 255 263 271 265 257 259 256 264 281 292 319 332 337 341 342 336 335 336 332 324 316 312 306 299 294 283 274 272 269 268 268 264 261 260 258 257 258 262 266 270 274 278 280 283 286 290 296
162 177 149 228 273 315 305 305 273 256 242 241 260 288 298 245 76 36 11 1 350 336 339 334 330 328 323 317 311 306 300 297 294 288 281 276 274 273 272 270 265 263 263 263 263 266 269 271 272 273 274 277 281 285
105 188 232 292 313 337 349 327 311 331 319 13 15 30 36 59 99 16 3 349 342 336 328 323 327 323 316 314 314 309 302 296 293 289 286 283 280 276 273 271 270 266 264 262 261 262 263 265 268 270 271 271 273 275
Wind_Speed_850mb
17 14 11 11 10 10 13 12 8 10 13 16 16 11 18 17 17 15 10 11 10 6 10 13 16 13 12 11 8 11 5 2 6 6 8 8 7 8 2 6 11 14 12 7 3 4 28 5 9 9 14 46 54 60
14 12 13 15 13 16 16 12 14 14 15 15 20 11 13 16 16 13 15 15 17 12 11 20 23 30 29 16 9 19 4 9 14 6 0 5 5 1 7 7 5 6 12 8 18 14 4 20 11 38 80 60 63 68
15 13 16 18 19 18 22 20 21 21 19 21 20 18 19 18 13 9 11 18 22 16 24 18 4 9 33 53 41 18 17 18 12 11 15 6 6 7 7 12 4 7 14 12 4 7 24 41 59 72 56 59 72 80
22 21 23 23 24 23 26 28 24 24 26 28 29 22 23 23 21 18 19 15 13 10 8 9 5 4 15 18 33 56 42 18 18 22 14 6 5 22 7 10 10 14 12 8 26 32 52 49 50 63 67 71 78 86
19 21 20 21 25 27 30 31 33 34 32 32 32 29 19 18 14 24 24 23 20 11 7 23 46 22 15 41 36 31 41 51 41 19 11 7 11 6 10 3 16 30 13 14 30 42 36 50 65 70 75 78 83 84
20 19 17 20 24 26 30 30 32 25 29 33 35 32 22 17 21 20 13 14 16 17 6 6 13 32 30 27 15 43 36 30 36 14 12 13 21 15 7 7 20 45 45 56 57 64 70 69 74 61 66 71 80 88
25 24 25 29 29 32 33 33 35 33 33 33 32 35 31 28 28 20 9 7 11 4 4 12 14 10 14 10 10 17 24 23 25 16 16 19 17 20 7 30 89 43 57 67 71 77 49 58 57 64 77 83 86 92
16 19 26 32 33 33 32 33 35 35 32 38 33 32 35 36 39 37 37 30 23 10 9 4 10 14 6 4 6 9 10 18 17 14 6 9 8 9 11 43 54 49 54 56 55 55 48 56 66 83 86 89 91 97
14 15 16 18 19 23 32 28 28 35 36 28 30 29 30 49 30 41 33 33 39 26 10 14 8 7 6 5 4 4 5 1 5 5 8 8 2 12 21 16 39 53 52 68 67 67 68 67 77 84 90 94 82 94
12 14 15 19 20 22 22 29 26 22 29 34 26 20 15 13 24 15 11 15 17 17 24 18 24 5 13 9 3 2 2 1 2 6 4 4 9 74 71 74 75 69 58 61 60 56 45 60 74 85 92 94 89 95
16 17 18 20 21 22 25 22 27 20 17 23 14 15 19 28 23 12 12 12 11 8 13 13 41 12 19 6 5 4 4 1 1 8 6 5 8 18 35 40 36 40 49 50 48 59 61 70 73 84 94 93 94 94
19 22 22 23 25 24 21 23 21 26 17 11 15 16 25 15 14 9 7 2 6 11 13 16 17 24 15 15 10 8 6 4 11 1 5 7 9 21 24 37 40 41 49 52 57 66 68 70 73 81 86 89 92 90
23 26 25 25 26 27 26 22 23 25 36 26 16 18 15 17 11 16 18 8 3 14 26 23 9 21 15 16 11 7 7 10 3 3 8 11 21 35 32 36 48 49 55 59 65 68 70 75 78 80 85 92 91 92
30 27 27 28 28 29 29 27 23 28 26 15 16 12 14 11 13 12 10 12 28 24 46 43 21 10 10 8 9 9 8 6 1 4 14 7 48 48 40 45 55 63 61 61 67 68 75 77 79 82 86 87 83 92
34 32 34 33 35 30 30 32 31 31 24 24 16 13 17 21 13 13 32 19 28 35 53 24 12 12 1 6 5 7 6 10 13 12 9 38 41 41 50 61 65 66 68 68 67 73 77 77 78 86 87 83 83 84
39 44 45 43 38 37 35 35 36 43 18 18 24 10 5 1 7 16 35 44 44 44 41 13 8 7 10 8 7 17 12 15 12 9 47 41 45 60 69 71 72 72 68 70 73 73 73 76 79 85 84 80 79 75
42 50 49 41 38 39 34 31 30 23 17 16 17 34 44 35 19 29 39 41 40 42 7 9 14 20 7 5 6 10 13 25 40 54 59 68 79 82 81 83 78 76 72 69 68 72 73 74 78 77 80 78 75 72
51 48 43 38 37 42 48 44 21 17 19 37 22 49 47 47 46 52 53 51 49 38 39 14 14 10 12 15 9 12 48 68 75 82 82 79 86 87 83 75 81 76 70 69 70 71 70 73 73 74 74 71 73 71
58 45 41 44 39 45 21 18 32 17 38 59 63 67 66 58 58 68 73 76 81 52 29 18 11 10 10 17 26 47 51 67 74 82 81 84 86 83 81 82 81 71 66 68 66 68 67 64 62 64 63 64 67 64
65 48 44 46 43 43 15 16 31 24 16 34 45 41 36 43 48 55 64 65 61 32 16 9 13 29 39 79 76 77 77 81 68 66 75 89 90 88 85 83 79 73 71 68 64 62 64 59 58 55 57 57 60 58
67 57 49 48 50 47 22 22 28 17 17 25 38 40 30 32 33 36 40 44 26 12 6 35 60 68 71 77 77 78 84 88 87 86 78 78 101 89 91 86 80 70 60 56 56 62 57 55 52 50 51 49 48 48
73 51 46 44 30 24 30 43 31 28 16 15 10 14 12 9 18 24 23 22 17 41 47 70 83 87 89 90 99 102 99 86 84 89 93 88 88 87 85 81 70 71 62 55 53 52 51 46 42 43 45 43 42 42
47 35 40 35 22 23 26 31 21 19 8 9 11 7 8 12 12 18 12 17 35 76 81 78 84 87 84 92 89 92 90 84 86 94 96 92 90 82 75 71 64 55 52 49 38 37 36 32 35 39 40 38 41 41
29 18 15 19 28 13 11 15 15 10 8 3 7 8 8 13 15 7 8 15 63 64 64 71 75 83 81 82 86 89 87 89 88 89 88 78 73 66 60 54 41 35 35 33 25 22 21 25 30 35 38 41 43 43
13 20 21 16 13 8 13 6 6 5 10 10 10 9 5 11 6 6 8 22 57 67 71 74 78 78 73 79 78 70 65 62 62 67 59 52 49 49 41 31 26 25 25 18 16 20 19 22 28 33 37 40 44 44
20 31 17 20 11 13 14 12 15 16 8 9 13 4 8 5 6 12 8 36 49 53 56 59 53 49 50 51 53 47 46 39 38 45 50 48 46 41 31 21 20 17 19 16 16 21 22 24 27 31 35 38 41 44
13 12 15 17 15 15 5 4 6 4 11 13 7 9 7 9 13 10 23 30 31 35 34 30 31 33 36 33 29 35 43 49 46 48 47 39 35 35 35 30 26 24 27 27 26 28 28 29 30 32 35 37 40 42
17 25 13 18 12 13 10 8 11 14 10 16 18 10 15 17 12 9 11 19 23 25 26 28 30 33 35 39 45 48 47 45 41 38 35 32 32 40 40 38 34 29 28 29 32 33 34 35 38 38 40 41 39 38
16 19 22 5 5 11 16 16 13 20 17 32 11 9 12 17 22 20 24 27 29 31 33 33 34 35 36 37 39 40 38 38 39 37 37 44 38 37 40 42 42 42 42 38 40 40 40 40 41 44 45 46 45 39
15 29 11 6 11 14 17 25 9 14 19 25 14 13 16 22 23 25 25 27 27 28 28 31 35 39 41 41 41 37 33 33 32 32 36 38 37 39 39 41 41 42 44 47 47 46 46 48 48 50 54 54 50 46
14 21 6 10 9 7 12 18 24 28 22 20 32 30 26 17 18 15 15 18 19 21 24 27 30 34 36 37 39 43 44 34 31 33 38 44 47 46 43 45 47 49 50 52 54 56 57 58 58 56 54 53 50 51
9 10 7 4 7 7 13 5 7 7 9 8 5 5 5 3 3 10 26 22 25 27 34 44 51 51 42 37 38 40 43 46 44 43 44 49 53 54 54 53 53 57 59 60 61 63 64 65 63 59 56 55 55 52
3 5 4 6 8 6 8 12 4 8 4 7 8 7 6 4 3 17 31 29 29 39 53 60 52 46 44 46 50 47 45 43 42 44 46 49 52 52 53 54 54 55 57 58 59 61 64 65 67 64 60 58 58 55
Wind_Direction_850mb
239 242 251 258 274 285 300 297 326 325 340 346 337 3 358 346 347 351 353 350 349 305 270 240 223 197 172 180 144 151 46 250 61 102 173 207 183 228 92 214 186 175 160 192 107 242 261 95 51 113 268 302 310 309
247 240 263 276 273 285 297 297 306 309 314 324 337 348 325 339 346 335 328 333 325 298 270 269 260 240 239 215 201 192 211 167 191 87 317 103 220 238 183 259 312 273 191 188 190 214 237 301 287 318 321 302 304 302
242 250 256 257 264 274 276 274 275 295 297 290 301 323 342 337 349 331 346 339 332 317 298 285 308 277 253 239 236 222 230 221 204 195 166 191 221 130 196 237 205 263 222 240 50 266 254 283 297 307 300 299 301 302
243 236 246 250 258 263 266 270 276 275 281 288 294 302 325 327 312 296 298 308 320 315 301 301 305 28 290 265 235 228 232 201 216 236 223 179 175 203 231 253 202 205 176 224 255 274 283 286 295 296 294 294 295 303
248 248 250 257 261 257 259 263 267 260 262 270 270 267 272 298 271 277 288 281 278 282 276 292 298 294 305 252 243 235 230 237 238 223 214 222 213 247 236 276 240 222 216 237 263 273 285 289 294 295 295 302 305 304
242 247 255 263 259 260 256 262 267 275 262 271 277 278 261 256 260 265 283 270 232 222 262 309 288 287 282 285 289 232 237 227 224 223 222 230 223 227 260 254 226 251 258 258 265 279 278 285 287 297 299 307 307 303
249 254 249 256 261 259 258 256 261 257 253 259 265 261 271 236 246 228 250 210 192 184 280 294 297 272 294 299 226 230 229 218 230 243 225 231 221 219 244 266 268 273 282 284 277 277 281 285 284 301 303 306 311 311
251 260 257 261 263 264 261 259 259 256 265 258 261 260 260 244 236 240 250 238 223 234 217 224 267 306 269 240 194 197 202 198 215 235 229 208 222 215 261 247 275 288 288 290 297 292 286 299 295 295 302 311 314 310
280 281 284 291 294 288 265 263 267 259 266 264 265 244 252 211 214 228 245 238 234 218 216 196 164 247 200 189 203 174 217 4 251 218 240 185 157 226 241 255 282 290 291 296 299 296 292 292 297 299 308 312 306 306
308 322 305 291 297 289 295 264 265 275 256 256 265 218 216 201 206 201 209 215 221 222 223 196 193 230 178 167 91 12 348 220 288 251 280 124 244 248 263 271 276 285 295 301 296 296 300 300 296 301 306 310 307 311
297 295 299 294 300 290 286 291 257 285 296 249 226 205 188 172 173 189 223 197 211 264 232 221 211 180 191 135 165 228 179 215 38 264 145 294 279 249 271 270 274 288 304 308 313 313 306 305 301 305 310 311 313 315
314 309 300 296 293 291 294 274 272 263 259 253 224 178 156 184 183 185 196 199 187 225 209 183 196 184 174 162 157 177 161 62 239 304 81 270 247 260 260 281 292 302 309 308 311 317 315 313 311 310 310 312 314 315
307 309 305 293 291 286 281 270 259 254 257 282 218 164 190 201 216 196 195 226 233 206 189 172 160 163 152 178 108 112 156 224 91 76 230 235 265 278 276 280 293 297 308 313 312 315 317 313 310 313 315 317 318 316
322 311 312 299 290 284 278 272 257 256 234 229 190 210 200 204 238 201 177 178 204 195 180 162 141 152 156 147 146 131 218 94 215 259 234 244 266 282 285 291 294 304 311 310 311 312 314 315 314 314 317 317 314 315
324 317 309 299 284 279 277 265 272 265 218 213 207 228 220 233 242 245 220 196 194 196 168 148 112 170 117 124 184 97 41 233 202 227 224 260 273 282 292 304 310 313 313 311 309 311 313 313 313 314 317 314 314 314
315 315 306 299 278 277 287 261 254 266 248 230 223 242 230 117 259 221 211 217 204 182 161 160 131 132 218 162 119 210 155 218 234 214 257 278 289 297 300 303 309 310 308 307 308 309 311 311 314 314 313 312 316 317
305 305 314 298 287 281 290 288 272 234 241 235 243 244 254 255 245 239 228 224 209 166 192 164 178 203 112 121 234 186 208 236 243 263 279 287 289 293 297 302 304 306 306 306 307 308 310 311 314 313 311 316 315 319
279 298 303 296 288 289 285 267 248 249 242 243 245 261 249 251 255 252 244 227 196 199 207 216 165 189 200 184 235 236 235 247 254 259 270 279 282 287 296 297 302 303 303 305 306 307 308 312 314 313 313 315 316 321
268 281 290 290 288 285 257 230 210 233 237 253 264 267 263 261 261 261 256 246 230 213 200 193 218 201 203 210 231 241 247 255 259 268 278 286 285 291 297 300 302 300 303 306 307 308 309 309 310 314 313 315 316 321
260 259 269 272 282 275 253 249 249 252 219 245 255 252 258 260 268 265 253 241 210 196 201 216 210 225 227 233 239 244 254 263 263 267 276 283 284 293 298 300 298 301 304 306 309 307 309 313 314 313 315 317 318 323
254 248 260 274 271 260 256 258 253 259 244 231 254 250 245 245 242 240 239 227 186 215 246 238 241 245 250 255 260 263 266 271 273 273 271 276 286 291 294 294 297 301 302 307 305 306 308 314 311 315 316 320 321 325
247 239 259 269 256 251 248 247 245 245 246 256 240 217 234 237 228 228 205 182 217 235 233 239 242 248 253 255 258 262 270 276 275 277 280 281 284 286 289 293 296 298 298 299 302 299 303 309 312 317 318 325 330 331
236 240 257 253 253 238 247 228 214 213 208 232 201 192 238 229 225 195 223 228 240 244 247 252 259 262 260 268 271 274 277 276 276 278 280 282 282 283 283 289 294 293 292 294 294 290 299 308 322 327 327 336 338 339
240 228 229 230 218 217 197 207 202 194 202 212 193 238 248 221 169 173 237 241 249 254 261 269 270 268 268 269 272 277 284 281 279 281 278 276 275 277 286 289 284 282 283 280 284 280 295 318 330 334 341 351 348 345
226 217 212 222 220 174 178 186 195 159 234 194 201 247 227 175 183 209 232 261 265 271 276 276 272 272 270 278 282 285 291 291 285 280 278 267 269 276 272 277 283 277 254 252 258 266 284 312 330 340 346 353 353 351
210 213 210 196 190 176 191 180 199 208 165 190 226 195 168 170 211 240 228 260 272 275 277 278 281 287 288 286 288 294 303 299 289 279 281 272 264 256 257 252 247 234 245 258 274 290 294 300 317 337 346 346 348 353
213 206 205 207 186 156 117 119 143 157 186 206 183 167 173 215 235 246 259 269 268 281 281 285 293 297 293 290 295 308 314 309 300 281 284 269 251 242 239 242 243 240 246 262 273 286 299 307 312 323 335 344 342 345
222 184 197 193 211 187 144 165 177 205 218 184 134 184 194 202 230 267 276 287 284 285 285 290 294 297 298 297 298 300 302 302 305 299 274 249 240 232 234 237 241 247 253 260 268 282 295 304 309 314 320 327 336 335
177 187 164 159 159 205 214 198 207 221 202 176 182 217 231 241 269 277 286 289 292 297 297 295 294 295 295 295 293 290 291 293 295 292 284 260 247 248 248 247 246 255 255 256 264 271 283 292 299 304 307 312 319 325
159 174 165 171 184 212 219 208 232 232 222 223 254 268 273 276 283 290 298 302 303 306 313 317 317 315 311 307 297 289 287 285 282 276 274 272 267 258 255 254 255 255 256 259 262 267 274 281 287 293 298 301 304 311
153 177 179 191 228 238 241 255 263 271 265 257 259 256 264 281 292 319 332 337 341 342 336 335 336 332 324 316 312 306 299 294 283 274 272 269 268 268 264 261 260 258 257 258 262 266 270 274 278 280 283 286 290 296
162 177 149 228 273 315 305 305 273 256 242 241 260 288 298 245 76 36 11 1 350 336 339 334 330 328 323 317 311 306 300 297 294 288 281 276 274 273 272 270 265 263 263 263 263 266 269 271 272 273 274 277 281 285
105 188 232 292 313 337 349 327 311 331 319 13 15 30 36 59 99 16 3 349 342 336 328 323 327 323 316 314 314 309 302 296 293 289 286 283 280 276 273 271 270 266 264 262 261 262 263 265 268 270 271 271 273 275